| time (UTC) | temp F | wind direction | speed knots | gust knots | rain 1hr in | rain 24hr in | rain mn in | humidity % | barometer mb |
| 20260902060306 | 46 | 249 | 1.7 | 2.6 | 0.00 | 0.10 | 0.10 | 98 | 1006.6 |
| 20260902050804 | 46 | 248 | 0.9 | 1.7 | 0.00 | 0.10 | 0.10 | 98 | 1006.4 |
| 20260902050304 | 46 | 258 | 1.7 | 1.7 | 0.00 | 0.10 | 0.10 | 98 | 1006.3 |
| 20260902040805 | 47 | 227 | 0.9 | 1.7 | 0.00 | 0.10 | 0.10 | 99 | 1006.1 |
| 20260902040305 | 47 | 307 | 0.0 | 2.6 | 0.00 | 0.10 | 0.10 | 98 | 1006.1 |
| 20260902030805 | 47 | 23 | 1.7 | 1.7 | 0.00 | 0.10 | 0.10 | 99 | 1005.8 |
| 20260902030304 | 47 | 20 | 1.7 | 2.6 | 0.00 | 0.10 | 0.10 | 98 | 1005.7 |
| 20260902020804 | 48 | 20 | 1.7 | 2.6 | 0.00 | 0.10 | 0.10 | 98 | 1005.5 |
| 20260902010805 | 48 | 358 | 1.7 | 2.6 | 0.05 | 0.10 | 0.10 | 96 | 1005.2 |
| 20260902010305 | 48 | 14 | 1.7 | 5.2 | 0.05 | 0.10 | 0.10 | 95 | 1005.1 |
| 20260902000805 | 50 | 284 | 2.6 | 4.3 | 0.05 | 0.05 | 0.05 | 93 | 1004.7 |
| 20260902000304 | 50 | 273 | 4.3 | 5.2 | 0.05 | 0.05 | 0.05 | 93 | 1004.7 |
| 20260901230805 | 56 | 244 | 0.9 | 2.6 | 0.00 | 0.00 | 0.00 | 65 | 1004.2 |
| 20260901230305 | 55 | 295 | 0.9 | 6.1 | 0.00 | 0.00 | 0.00 | 65 | 1004.2 |
| 20260901220305 | 53 | 268 | 1.7 | 7.8 | 0.00 | 0.00 | 0.00 | 73 | 1004.4 |
| 20260901210805 | 52 | 289 | 1.7 | 7.0 | 0.00 | 0.00 | 0.00 | 76 | 1004.4 |
| 20260901210305 | 53 | 304 | 0.9 | 5.2 | 0.00 | 0.00 | 0.00 | 76 | 1004.4 |
| 20260901200805 | 52 | 310 | 1.7 | 4.3 | 0.00 | 0.00 | 0.00 | 76 | 1004.3 |
| 20260901200305 | 52 | 287 | 0.9 | 6.1 | 0.00 | 0.00 | 0.00 | 75 | 1004.3 |
| 20260901190805 | 49 | 119 | 3.5 | 6.1 | 0.00 | 0.00 | 0.00 | 78 | 1004.6 |
| 20260901190305 | 49 | 278 | 3.5 | 7.8 | 0.00 | 0.00 | 0.00 | 80 | 1004.7 |
| 20260901180804 | 48 | 281 | 4.3 | 7.0 | 0.00 | 0.00 | 0.00 | 86 | 1004.7 |
| 20260901180305 | 48 | 281 | 4.3 | 7.0 | 0.00 | 0.00 | 0.00 | 87 | 1004.6 |
| 20260901170805 | 46 | 261 | 1.7 | 2.6 | 0.00 | 0.00 | 0.00 | 92 | 1004.5 |
| 20260901160804 | 45 | 290 | 1.7 | 2.6 | 0.00 | 0.00 | 0.00 | 95 | 1004.4 |
| 20260901150805 | 44 | 273 | 2.6 | 4.3 | 0.00 | 0.00 | 0.00 | 98 | 1003.9 |
| 20260901150304 | 44 | 272 | 3.5 | 6.1 | 0.00 | 0.00 | 0.00 | 98 | 1003.9 |
| 20260901140804 | 43 | 272 | 4.3 | 7.8 | 0.00 | 0.00 | 0.00 | 98 | 1003.5 |
| 20260901140304 | 43 | 282 | 5.2 | 7.0 | 0.00 | 0.00 | 0.00 | 98 | 1003.5 |
| 20260901130805 | 43 | 262 | 4.3 | 6.1 | 0.00 | 0.00 | 0.00 | 98 | 1003.1 |
| 20260901120305 | 43 | 142 | 0.9 | 6.1 | 0.00 | 0.00 | 0.00 | 98 | 1002.7 |
| 20260901110805 | 44 | 280 | 3.5 | 5.2 | 0.00 | 0.00 | 0.00 | 96 | 1002.2 |
| 20260901110305 | 44 | 277 | 3.5 | 7.0 | 0.00 | 0.00 | 0.00 | 97 | 1002.2 |
| 20260901100804 | 45 | 272 | 2.6 | 4.3 | 0.00 | 0.00 | 0.00 | 95 | 1001.9 |
| 20260901100305 | 45 | 270 | 2.6 | 5.2 | 0.00 | 0.00 | 0.00 | 95 | 1001.9 |
| 20260901090805 | 45 | 273 | 2.6 | 2.6 | 0.00 | 0.00 | 0.00 | 93 | 1001.5 |
| 20260901090305 | 46 | 272 | 1.7 | 4.3 | 0.00 | 0.00 | 0.00 | 93 | 1001.4 |
| 20260901080805 | 46 | 250 | 1.7 | 2.6 | 0.00 | 0.00 | 0.00 | 91 | 1001.1 |
| 20260901080304 | 46 | 349 | 1.7 | 2.6 | 0.00 | 0.00 | 0.00 | 91 | 1001.1 |
| 20260901070812 | 47 | 232 | 0.0 | 1.7 | 0.00 | 0.00 | 0.00 | 87 | 1000.5 |